Weather History for Audubon, IA

Change the Weather History Date:

Sunday, January 20, 2013

  Actual Average Record
Temperature  
Mean Temperature 10 °F -  
Max Temperature 15 °F 31 °F 58 °F (1986)
Min Temperature 6 °F 9 °F -22 °F (1962)
Degree Days  
Heating Degree Days 54    
Moisture  
Dew Point 6 °F    
Average Humidity 74    
Maximum Humidity 85    
Minimum Humidity 62    
Precipitation  
Precipitation 0.00 in - - ()
Sea Level Pressure  
Sea Level Pressure 30.34 in    
Wind  
Wind Speed 7 mph (NW)    
Max Wind Speed 12 mph    
Max Gust Speed 16 mph    
Visibility 9 miles    
Events      
Averages and records for this station are not official NWS values.
T = Trace of Precipitation, MM = Missing Value Source: NWS Daily Summary

Daily Weather History Graph

Daily Weather History Graph

Search for Another Location

Airport:

Trip Planner

Search our weather history database for the weather conditions in past years. The results will help you decide how hot, cold, wet, or windy it might be!

Date:

Astronomy

Jan. 20, 2013 Rise Set
Actual Time 7:41 AM CST 5:20 PM CST
Civil Twilight 7:11 AM CST 5:50 PM CST
Nautical Twilight 6:37 AM CST 6:24 PM CST
Astronomical Twilight 6:04 AM CST 6:57 PM CST
Moon 12:22 PM CST (1/20) 2:14 AM CST (1/20)
Length of Visible Light 10h 39m
Length of Day
9h 39m
Waxing Gibbous, 66% of the Moon is Illuminated
Jan 20
Waxing Gibbous
Jan 26
Full
Feb 3
Last Quarter
Feb 10
New
Feb 17
First Quarter

Hourly Weather History & Observations

Time (CST) Temp. Windchill Dew Point Humidity Pressure Visibility Wind Dir Wind Speed Gust Speed Precip Events Conditions
12:15 AM 15.8 °F 6.1 °F 6.8 °F 68% 30.29 in 10.0 mi NW 6.9 mph - N/A   Clear
12:35 AM 15.8 °F 5.1 °F 6.8 °F 68% 30.30 in 10.0 mi NW 8.1 mph - N/A   Clear
12:55 AM 15.8 °F 4.2 °F 6.8 °F 68% 30.32 in 10.0 mi NW 9.2 mph 16.1 mph N/A   Clear
1:15 AM 15.8 °F 6.1 °F 6.8 °F 68% 30.32 in 10.0 mi WNW 6.9 mph - N/A   Clear
1:35 AM 14.0 °F 2.9 °F 6.8 °F 73% 30.33 in 10.0 mi WNW 8.1 mph - N/A   Clear
1:55 AM 14.0 °F 3.9 °F 6.8 °F 73% 30.32 in 10.0 mi NW 6.9 mph - N/A   Clear
2:15 AM 14.0 °F 2.0 °F 6.8 °F 73% 30.33 in 10.0 mi NW 9.2 mph - N/A   Clear
2:35 AM 12.2 °F -0.2 °F 5.0 °F 73% 30.33 in 10.0 mi NW 9.2 mph - N/A   Clear
2:55 AM 12.2 °F 4.3 °F 5.0 °F 73% 30.33 in 10.0 mi NNW 4.6 mph - N/A   Clear
3:15 AM 12.2 °F 0.7 °F 5.0 °F 73% 30.31 in 10.0 mi North 8.1 mph - N/A   Clear
3:35 AM 12.2 °F -0.2 °F 5.0 °F 73% 30.32 in 10.0 mi North 9.2 mph - N/A   Clear
3:55 AM 12.2 °F 0.7 °F 5.0 °F 73% 30.31 in 10.0 mi NW 8.1 mph - N/A   Clear
4:15 AM 12.2 °F -1.0 °F 3.2 °F 67% 30.31 in 10.0 mi NNW 10.4 mph - N/A   Clear
4:35 AM 12.2 °F 0.7 °F 3.2 °F 67% 30.31 in 10.0 mi NNW 8.1 mph - N/A   Clear
4:55 AM 12.2 °F 0.7 °F 3.2 °F 67% 30.30 in 10.0 mi North 8.1 mph - N/A   Clear
5:15 AM 12.2 °F -1.0 °F 3.2 °F 67% 30.30 in 10.0 mi North 10.4 mph - N/A   Clear
5:35 AM 12.2 °F -0.2 °F 3.2 °F 67% 30.30 in 10.0 mi NNW 9.2 mph - N/A   Clear
5:55 AM 12.2 °F 1.7 °F 3.2 °F 67% 30.31 in 10.0 mi NNW 6.9 mph - N/A   Clear
6:15 AM 12.2 °F 1.7 °F 3.2 °F 67% 30.32 in 10.0 mi NNW 6.9 mph - N/A   Clear
6:35 AM 10.4 °F -0.4 °F 3.2 °F 73% 30.32 in 10.0 mi North 6.9 mph - N/A   Clear
6:55 AM 10.4 °F -0.4 °F 3.2 °F 73% 30.31 in 10.0 mi NNW 6.9 mph - N/A   Clear
7:15 AM 12.2 °F 2.9 °F 3.2 °F 67% 30.32 in 10.0 mi North 5.8 mph - N/A   Clear
7:35 AM 12.2 °F 1.7 °F 3.2 °F 67% 30.33 in 10.0 mi North 6.9 mph - N/A   Mostly Cloudy
7:55 AM 12.2 °F 1.7 °F 3.2 °F 67% 30.33 in 10.0 mi North 6.9 mph - N/A   Overcast
8:15 AM 12.2 °F 2.9 °F 3.2 °F 67% 30.34 in 10.0 mi North 5.8 mph - N/A   Overcast
8:35 AM 12.2 °F 1.7 °F 3.2 °F 67% 30.34 in 10.0 mi North 6.9 mph - N/A   Mostly Cloudy
8:55 AM 12.2 °F -0.2 °F 3.2 °F 67% 30.35 in 10.0 mi North 9.2 mph - N/A   Clear
9:15 AM 14.0 °F 2.0 °F 3.2 °F 62% 30.36 in 10.0 mi North 9.2 mph - N/A   Clear
9:35 AM 14.0 °F 2.9 °F 3.2 °F 62% 30.37 in 10.0 mi North 8.1 mph - N/A   Clear
9:55 AM 14.0 °F 5.1 °F 5.0 °F 67% 30.37 in 10.0 mi North 5.8 mph - N/A   Scattered Clouds
10:15 AM 15.8 °F 7.2 °F 5.0 °F 62% 30.36 in 10.0 mi North 5.8 mph - N/A   Mostly Cloudy
10:35 AM 15.8 °F 7.2 °F 6.8 °F 68% 30.36 in 10.0 mi North 5.8 mph - N/A   Overcast
10:55 AM 15.8 °F 7.2 °F 6.8 °F 68% 30.36 in 10.0 mi North 5.8 mph - N/A   Overcast
11:15 AM 15.8 °F 7.2 °F 6.8 °F 68% 30.38 in 5.0 mi North 5.8 mph - N/A   Scattered Clouds
11:35 AM 15.8 °F 7.2 °F 8.6 °F 73% 30.38 in 3.0 mi NNW 5.8 mph - N/A   Mostly Cloudy
11:55 AM 15.8 °F 6.1 °F 8.6 °F 73% 30.39 in 4.0 mi NNW 6.9 mph - N/A   Overcast
12:15 PM 15.8 °F 5.1 °F 8.6 °F 73% 30.38 in 1.0 mi NNW 8.1 mph - N/A   Overcast
12:35 PM 15.8 °F 7.2 °F 8.6 °F 73% 30.38 in 0.8 mi NNW 5.8 mph - N/A   Overcast
12:55 PM 15.8 °F 6.1 °F 10.4 °F 79% 30.37 in 1.0 mi NNW 6.9 mph - N/A   Overcast
1:15 PM 15.8 °F 7.2 °F 10.4 °F 79% 30.36 in 2.5 mi NW 5.8 mph - N/A   Scattered Clouds
1:35 PM 15.8 °F 8.6 °F 10.4 °F 79% 30.35 in 3.0 mi NNW 4.6 mph - N/A   Scattered Clouds
1:55 PM 15.8 °F 6.1 °F 10.4 °F 79% 30.35 in 1.2 mi NW 6.9 mph - N/A   Overcast
2:15 PM 15.8 °F 4.2 °F 10.4 °F 79% 30.35 in 4.0 mi NNW 9.2 mph - N/A   Mostly Cloudy
2:35 PM 15.8 °F 4.2 °F 10.4 °F 79% 30.35 in 7.0 mi NNW 9.2 mph - N/A   Mostly Cloudy
2:55 PM 15.8 °F 5.1 °F 8.6 °F 73% 30.36 in 1.8 mi NW 8.1 mph - N/A   Mostly Cloudy
3:15 PM 15.8 °F 7.2 °F 10.4 °F 79% 30.36 in 2.5 mi NW 5.8 mph - N/A   Overcast
3:35 PM 15.8 °F 4.2 °F 10.4 °F 79% 30.36 in 7.0 mi NW 9.2 mph - N/A   Overcast
3:55 PM 15.8 °F 4.2 °F 8.6 °F 73% 30.36 in 7.0 mi NW 9.2 mph - N/A   Overcast
4:15 PM 14.0 °F 0.5 °F 8.6 °F 79% 30.36 in 10.0 mi NW 11.5 mph - N/A   Overcast
4:35 PM 14.0 °F 1.2 °F 8.6 °F 79% 30.35 in 10.0 mi NNW 10.4 mph - N/A   Overcast
4:55 PM 14.0 °F 6.5 °F 8.6 °F 79% 30.35 in 10.0 mi NW 4.6 mph - N/A   Overcast
5:15 PM 12.2 °F 6.1 °F 8.6 °F 85% 30.35 in 10.0 mi NW 3.5 mph - N/A   Overcast
5:35 PM 12.2 °F 4.3 °F 6.8 °F 79% 30.36 in 10.0 mi NW 4.6 mph - N/A   Mostly Cloudy
5:55 PM 10.4 °F 2.2 °F 6.8 °F 85% 30.36 in 10.0 mi WNW 4.6 mph - N/A   Clear
6:15 PM 10.4 °F 2.2 °F 5.0 °F 79% 30.35 in 10.0 mi WNW 4.6 mph - N/A   Clear
6:55 PM 8.6 °F 0.1 °F 3.2 °F 79% 30.37 in 10.0 mi WNW 4.6 mph - N/A   Clear
7:15 PM 8.6 °F - 3.2 °F 79% 30.35 in 10.0 mi Calm Calm - N/A   Scattered Clouds
7:35 PM 8.6 °F -1.3 °F 3.2 °F 79% 30.35 in 10.0 mi WNW 5.8 mph - N/A   Clear
7:55 PM 8.6 °F -3.7 °F 5.0 °F 85% 30.36 in 10.0 mi NW 8.1 mph - N/A   Clear
8:15 PM 8.6 °F -3.7 °F 3.2 °F 79% 30.36 in 10.0 mi WNW 8.1 mph - N/A   Clear
8:35 PM 8.6 °F -1.3 °F 3.2 °F 79% 30.37 in 10.0 mi WNW 5.8 mph - N/A   Clear
8:55 PM 8.6 °F 2.0 °F 3.2 °F 79% 30.36 in 10.0 mi NW 3.5 mph - N/A   Clear
9:15 PM 6.8 °F -4.8 °F 1.4 °F 79% 30.36 in 10.0 mi WNW 6.9 mph - N/A   Clear
9:35 PM 6.8 °F -4.8 °F 1.4 °F 79% 30.35 in 10.0 mi West 6.9 mph - N/A   Clear
9:55 PM 6.8 °F -3.5 °F 1.4 °F 79% 30.35 in 10.0 mi West 5.8 mph - N/A   Scattered Clouds
10:15 PM 8.6 °F 0.1 °F 3.2 °F 79% 30.35 in 10.0 mi WNW 4.6 mph - N/A   Mostly Cloudy
10:35 PM 8.6 °F 2.0 °F 5.0 °F 85% 30.34 in 10.0 mi West 3.5 mph - N/A   Overcast
10:55 PM 10.4 °F -0.4 °F 5.0 °F 79% 30.34 in 10.0 mi WNW 6.9 mph - N/A   Overcast
11:15 PM 10.4 °F 0.8 °F 5.0 °F 79% 30.34 in 10.0 mi WNW 5.8 mph - N/A   Overcast
11:35 PM 10.4 °F 0.8 °F 5.0 °F 79% 30.34 in 10.0 mi NW 5.8 mph - N/A   Scattered Clouds
11:55 PM 8.6 °F -1.3 °F 3.2 °F 79% 30.34 in 10.0 mi WNW 5.8 mph - N/A   Clear